Location: Sungai Apap
(2.6167°N, 113.3833°E)
Time: 14:44:28
(UTC+00:00)

ARIANE 3 DEB - Pass Details

Date: 25 May 2024
Orbit: 266 x 3020 km, 6.7° (Epoch: 14 June)

Event Time Altitude Azimuth Distance (km) Brightness Sun altitude
Exits shadow 21:27:36 19° 282° (WNW) 832 3.3 -12.0°
Maximum altitude 21:29:10 49° 353° (N) 366 2.0 -11.7°
Drops below altitude 10° 21:31:19 10° 72° (ENE) 1,045 5.8 -11.2°
Sets 21:33:08 0° 78° (ENE) 1,863 7.5 -10.8°
